| time (UTC) | temp F | wind direction | speed MPH | gust MPH | rain 1hr in | rain 24hr in | rain mn in | humidity % | barometer mb |
| 20260506175525 | 87 | 196 | 0.0 | 6.0 | 0.00 | 0.00 | 0.00 | 73 | 1008.6 |
| 20260506175028 | 87 | 191 | 1.0 | 7.0 | 0.00 | 0.00 | 0.00 | 73 | 1008.6 |
| 20260506174525 | 87 | 202 | 3.0 | 7.0 | 0.00 | 0.00 | 0.00 | 72 | 1008.6 |
| 20260506174024 | 87 | 249 | 2.0 | 4.0 | 0.00 | 0.00 | 0.00 | 73 | 1008.4 |
| 20260506173523 | 86 | 242 | 0.0 | 4.0 | 0.00 | 0.00 | 0.00 | 75 | 1008.5 |
| 20260506173022 | 86 | 210 | 1.0 | 5.0 | 0.00 | 0.00 | 0.00 | 76 | 1008.5 |
| 20260506172520 | 85 | 164 | 2.0 | 6.0 | 0.00 | 0.00 | 0.00 | 77 | 1008.5 |
| 20260506172019 | 85 | 136 | 1.0 | 7.0 | 0.00 | 0.00 | 0.00 | 78 | 1008.7 |
| 20260506171521 | 84 | 172 | 4.0 | 7.0 | 0.00 | 0.00 | 0.00 | 79 | 1008.8 |
| 20260506171017 | 84 | 218 | 1.0 | 5.0 | 0.00 | 0.00 | 0.00 | 81 | 1008.6 |
| 20260506170515 | 83 | 188 | 2.0 | 6.0 | 0.00 | 0.00 | 0.00 | 83 | 1008.6 |
| 20260506170017 | 82 | 180 | 2.0 | 6.0 | 0.00 | 0.00 | 0.00 | 83 | 1008.6 |
| 20260506165515 | 82 | 222 | 1.0 | 4.0 | 0.00 | 0.00 | 0.00 | 84 | 1008.7 |
| 20260506165011 | 81 | 192 | 1.0 | 8.0 | 0.00 | 0.00 | 0.00 | 86 | 1008.8 |
| 20260506164510 | 81 | 196 | 2.0 | 8.0 | 0.00 | 0.00 | 0.00 | 87 | 1008.8 |
| 20260506164009 | 81 | 200 | 1.0 | 4.0 | 0.00 | 0.00 | 0.00 | 87 | 1008.8 |
| 20260506163507 | 80 | 192 | 1.0 | 5.0 | 0.00 | 0.00 | 0.00 | 87 | 1008.9 |
| 20260506163012 | 79 | 185 | 1.0 | 5.0 | 0.00 | 0.00 | 0.00 | 88 | 1008.8 |
| 20260506162507 | 79 | 195 | 2.0 | 6.0 | 0.00 | 0.00 | 0.00 | 89 | 1008.7 |
| 20260506162005 | 79 | 209 | 2.0 | 6.0 | 0.00 | 0.00 | 0.00 | 89 | 1008.7 |
| 20260506161504 | 79 | 180 | 2.0 | 6.0 | 0.00 | 0.00 | 0.00 | 89 | 1008.8 |
| 20260506161004 | 79 | 225 | 0.0 | 6.0 | 0.00 | 0.00 | 0.00 | 90 | 1008.7 |
| 20260506160506 | 79 | 202 | 3.0 | 8.0 | 0.00 | 0.00 | 0.00 | 89 | 1008.6 |
| 20260506160007 | 79 | 248 | 2.0 | 7.0 | 0.00 | 0.00 | 0.00 | 89 | 1008.5 |
| 20260506155502 | 79 | 217 | 2.0 | 9.0 | 0.00 | 0.00 | 0.00 | 89 | 1008.5 |
| 20260506155001 | 79 | 163 | 2.0 | 10.0 | 0.00 | 0.00 | 0.00 | 89 | 1008.3 |
| 20260506154628 | 79 | 192 | 2.0 | 8.0 | 0.00 | 0.00 | 0.00 | 89 | 1008.2 |
| 20260506154102 | 79 | 182 | 4.0 | 10.0 | 0.00 | 0.00 | 0.00 | 88 | 1008.1 |
| 20260506153601 | 79 | 199 | 2.0 | 10.0 | 0.00 | 0.00 | 0.00 | 88 | 1008.0 |
| 20260506153110 | 79 | 202 | 2.0 | 7.0 | 0.00 | 0.00 | 0.00 | 89 | 1008.0 |
| 20260506152559 | 79 | 175 | 2.0 | 7.0 | 0.00 | 0.00 | 0.00 | 89 | 1008.0 |
| 20260506152100 | 79 | 176 | 1.0 | 9.0 | 0.00 | 0.00 | 0.00 | 89 | 1008.0 |
| 20260506151600 | 79 | 146 | 2.0 | 8.0 | 0.00 | 0.00 | 0.00 | 89 | 1007.9 |
| 20260506151058 | 79 | 189 | 3.0 | 8.0 | 0.00 | 0.00 | 0.00 | 89 | 1007.9 |
| 20260506150558 | 79 | 133 | 2.0 | 7.0 | 0.00 | 0.00 | 0.00 | 89 | 1008.1 |
| 20260506145558 | 79 | 172 | 1.0 | 7.0 | 0.00 | 0.00 | 0.00 | 89 | 1008.2 |
| 20260506145057 | 79 | 233 | 2.0 | 9.0 | 0.00 | 0.00 | 0.00 | 89 | 1007.9 |
| 20260506144557 | 79 | 192 | 3.0 | 9.0 | 0.00 | 0.00 | 0.00 | 88 | 1007.9 |
| 20260506144056 | 79 | 183 | 2.0 | 7.0 | 0.00 | 0.00 | 0.00 | 88 | 1007.9 |
| 20260506143556 | 79 | 194 | 3.0 | 7.0 | 0.00 | 0.00 | 0.00 | 88 | 1007.9 |
| 20260506143105 | 79 | 188 | 2.0 | 7.0 | 0.00 | 0.00 | 0.00 | 88 | 1007.9 |
| 20260506142556 | 79 | 206 | 2.0 | 7.0 | 0.00 | 0.00 | 0.00 | 88 | 1008.0 |
| 20260506142055 | 79 | 186 | 2.0 | 7.0 | 0.00 | 0.00 | 0.00 | 88 | 1008.0 |
| 20260506141555 | 79 | 213 | 2.0 | 5.0 | 0.00 | 0.00 | 0.00 | 88 | 1008.0 |
| 20260506141057 | 79 | 179 | 2.0 | 9.0 | 0.00 | 0.00 | 0.00 | 87 | 1008.0 |
| 20260506140555 | 79 | 165 | 2.0 | 9.0 | 0.00 | 0.00 | 0.00 | 87 | 1008.0 |
| 20260506140058 | 79 | 121 | 1.0 | 10.0 | 0.00 | 0.00 | 0.00 | 87 | 1007.9 |
| 20260506135555 | 79 | 185 | 2.0 | 7.0 | 0.00 | 0.00 | 0.00 | 87 | 1007.9 |
| 20260506135052 | 79 | 167 | 2.0 | 8.0 | 0.00 | 0.00 | 0.00 | 87 | 1008.0 |
| 20260506134553 | 79 | 167 | 3.0 | 8.0 | 0.00 | 0.00 | 0.00 | 87 | 1007.8 |
| 20260506134052 | 79 | 142 | 2.0 | 7.0 | 0.00 | 0.00 | 0.00 | 88 | 1007.8 |
| 20260506133552 | 79 | 222 | 2.0 | 7.0 | 0.00 | 0.00 | 0.00 | 88 | 1007.8 |
| 20260506133051 | 79 | 190 | 1.0 | 5.0 | 0.00 | 0.00 | 0.00 | 88 | 1007.8 |
| 20260506132550 | 78 | 153 | 1.0 | 6.0 | 0.00 | 0.00 | 0.00 | 88 | 1007.9 |
| 20260506132054 | 78 | 173 | 1.0 | 6.0 | 0.00 | 0.00 | 0.00 | 88 | 1007.9 |
| 20260506131650 | 78 | 172 | 1.0 | 6.0 | 0.00 | 0.00 | 0.00 | 88 | 1008.0 |
| 20260506131050 | 78 | 198 | 2.0 | 7.0 | 0.00 | 0.00 | 0.00 | 88 | 1007.8 |
| 20260506130552 | 78 | 188 | 2.0 | 10.0 | 0.00 | 0.00 | 0.00 | 89 | 1007.7 |
| 20260506130050 | 78 | 166 | 3.0 | 10.0 | 0.00 | 0.00 | 0.00 | 89 | 1007.7 |
| 20260506125552 | 78 | 158 | 2.0 | 9.0 | 0.00 | 0.00 | 0.00 | 89 | 1007.7 |
| 20260506125052 | 78 | 159 | 1.0 | 9.0 | 0.00 | 0.00 | 0.00 | 89 | 1007.6 |
| 20260506124549 | 78 | 123 | 2.0 | 6.0 | 0.00 | 0.00 | 0.00 | 89 | 1007.6 |
| 20260506124052 | 78 | 180 | 1.0 | 7.0 | 0.00 | 0.00 | 0.00 | 89 | 1007.5 |
| 20260506123552 | 78 | 199 | 1.0 | 5.0 | 0.00 | 0.00 | 0.00 | 89 | 1007.6 |
| 20260506123049 | 78 | 140 | 1.0 | 4.0 | 0.00 | 0.00 | 0.00 | 89 | 1007.5 |
| 20260506122548 | 78 | 150 | 1.0 | 7.0 | 0.00 | 0.00 | 0.00 | 89 | 1007.5 |
| 20260506122047 | 78 | 150 | 3.0 | 7.0 | 0.00 | 0.00 | 0.00 | 88 | 1007.4 |
| 20260506121547 | 78 | 130 | 3.0 | 7.0 | 0.00 | 0.00 | 0.00 | 88 | 1007.5 |
| 20260506121047 | 78 | 139 | 2.0 | 7.0 | 0.00 | 0.00 | 0.00 | 88 | 1007.5 |
| 20260506120547 | 78 | 146 | 1.0 | 4.0 | 0.00 | 0.00 | 0.00 | 88 | 1007.4 |
| 20260506120056 | 78 | 146 | 2.0 | 4.0 | 0.00 | 0.00 | 0.00 | 88 | 1007.3 |
| 20260506115548 | 78 | 173 | 1.0 | 3.0 | 0.00 | 0.00 | 0.00 | 88 | 1007.3 |
| 20260506115047 | 78 | 173 | 0.0 | 4.0 | 0.00 | 0.00 | 0.00 | 88 | 1007.3 |
| 20260506114555 | 78 | 175 | 1.0 | 6.0 | 0.00 | 0.00 | 0.00 | 88 | 1007.3 |
| 20260506114049 | 78 | 173 | 1.0 | 6.0 | 0.00 | 0.00 | 0.00 | 88 | 1007.4 |
| 20260506113549 | 78 | 227 | 0.0 | 6.0 | 0.00 | 0.00 | 0.00 | 88 | 1007.2 |
| 20260506113046 | 78 | 227 | 2.0 | 6.0 | 0.00 | 0.00 | 0.00 | 88 | 1007.1 |
| 20260506112546 | 78 | 159 | 1.0 | 5.0 | 0.00 | 0.00 | 0.00 | 88 | 1007.1 |
| 20260506112048 | 78 | 159 | 1.0 | 6.0 | 0.00 | 0.00 | 0.00 | 88 | 1007.1 |
| 20260506111545 | 78 | 153 | 2.0 | 6.0 | 0.00 | 0.00 | 0.00 | 88 | 1007.1 |
| 20260506111045 | 78 | 157 | 1.0 | 5.0 | 0.00 | 0.00 | 0.00 | 88 | 1007.1 |
| 20260506110545 | 78 | 147 | 2.0 | 6.0 | 0.00 | 0.00 | 0.00 | 88 | 1007.1 |
| 20260506110054 | 78 | 147 | 1.0 | 4.0 | 0.00 | 0.00 | 0.00 | 88 | 1007.2 |
| 20260506105545 | 78 | 178 | 1.0 | 4.0 | 0.00 | 0.00 | 0.00 | 88 | 1007.1 |
| 20260506105044 | 78 | 180 | 1.0 | 3.0 | 0.00 | 0.00 | 0.00 | 88 | 1007.1 |
| 20260506104544 | 78 | 180 | 1.0 | 3.0 | 0.00 | 0.00 | 0.00 | 88 | 1007.1 |
| 20260506104145 | 78 | 180 | 1.0 | 4.0 | 0.00 | 0.00 | 0.00 | 88 | 1007.0 |
| 20260506103543 | 78 | 180 | 1.0 | 6.0 | 0.00 | 0.00 | 0.00 | 88 | 1007.0 |
| 20260506103043 | 78 | 111 | 1.0 | 6.0 | 0.00 | 0.00 | 0.00 | 88 | 1007.2 |
| 20260506102543 | 78 | 171 | 1.0 | 6.0 | 0.00 | 0.00 | 0.00 | 88 | 1007.2 |
| 20260506102044 | 78 | 132 | 1.0 | 4.0 | 0.00 | 0.00 | 0.00 | 88 | 1007.1 |
| 20260506101544 | 78 | 178 | 1.0 | 5.0 | 0.00 | 0.00 | 0.00 | 88 | 1007.0 |
| 20260506101047 | 78 | 123 | 3.0 | 5.0 | 0.00 | 0.00 | 0.00 | 88 | 1006.9 |
| 20260506100543 | 78 | 126 | 0.0 | 3.0 | 0.00 | 0.00 | 0.00 | 88 | 1006.9 |
| 20260506100046 | 78 | 182 | 1.0 | 6.0 | 0.00 | 0.00 | 0.00 | 88 | 1006.9 |
| 20260506095545 | 78 | 161 | 2.0 | 6.0 | 0.00 | 0.00 | 0.00 | 88 | 1006.9 |
| 20260506095042 | 78 | 175 | 2.0 | 6.0 | 0.00 | 0.00 | 0.00 | 88 | 1006.9 |
| 20260506094601 | 78 | 155 | 2.0 | 7.0 | 0.00 | 0.00 | 0.00 | 88 | 1006.8 |
| 20260506094042 | 78 | 159 | 2.0 | 7.0 | 0.00 | 0.00 | 0.00 | 88 | 1006.8 |
| 20260506093541 | 78 | 144 | 1.0 | 5.0 | 0.00 | 0.00 | 0.00 | 87 | 1006.9 |
| 20260506093044 | 78 | 188 | 1.0 | 4.0 | 0.00 | 0.00 | 0.00 | 87 | 1006.8 |
| 20260506092542 | 78 | 189 | 0.0 | 4.0 | 0.00 | 0.00 | 0.00 | 87 | 1006.9 |
| 20260506092041 | 78 | 189 | 1.0 | 6.0 | 0.00 | 0.00 | 0.00 | 87 | 1006.9 |
| 20260506091541 | 78 | 202 | 2.0 | 6.0 | 0.00 | 0.00 | 0.00 | 87 | 1006.7 |
| 20260506091040 | 78 | 161 | 3.0 | 7.0 | 0.00 | 0.00 | 0.00 | 87 | 1006.6 |
| 20260506090541 | 78 | 203 | 3.0 | 8.0 | 0.00 | 0.00 | 0.00 | 87 | 1006.6 |
| 20260506090041 | 78 | 232 | 2.0 | 7.0 | 0.00 | 0.00 | 0.00 | 87 | 1006.6 |
| 20260506085540 | 78 | 96 | 1.0 | 6.0 | 0.00 | 0.00 | 0.00 | 87 | 1006.6 |
| 20260506085040 | 78 | 126 | 2.0 | 9.0 | 0.00 | 0.00 | 0.00 | 87 | 1006.6 |
| 20260506084540 | 78 | 96 | 2.0 | 9.0 | 0.00 | 0.00 | 0.00 | 87 | 1006.6 |
| 20260506084044 | 78 | 217 | 3.0 | 10.0 | 0.00 | 0.00 | 0.00 | 87 | 1006.7 |
| 20260506083540 | 78 | 138 | 3.0 | 10.0 | 0.00 | 0.00 | 0.00 | 87 | 1006.5 |
| 20260506083040 | 78 | 165 | 4.0 | 10.0 | 0.00 | 0.00 | 0.00 | 87 | 1006.6 |
| 20260506082543 | 78 | 195 | 1.0 | 6.0 | 0.00 | 0.00 | 0.00 | 87 | 1006.6 |
| 20260506082039 | 78 | 202 | 2.0 | 9.0 | 0.00 | 0.00 | 0.00 | 87 | 1006.5 |
| 20260506081539 | 78 | 221 | 1.0 | 9.0 | 0.00 | 0.00 | 0.00 | 87 | 1006.5 |
| 20260506081038 | 78 | 156 | 3.0 | 9.0 | 0.00 | 0.00 | 0.00 | 87 | 1006.5 |
| 20260506080538 | 78 | 207 | 2.0 | 7.0 | 0.00 | 0.00 | 0.00 | 87 | 1006.5 |
| 20260506073040 | 78 | 209 | 3.0 | 14.0 | 0.00 | 0.00 | 0.00 | 85 | 1006.6 |
| 20260506072532 | 78 | 191 | 2.0 | 14.0 | 0.00 | 0.00 | 0.00 | 85 | 1006.8 |
| 20260506072034 | 78 | 155 | 3.0 | 8.0 | 0.00 | 0.00 | 0.00 | 85 | 1006.9 |
| 20260506071534 | 78 | 188 | 3.0 | 8.0 | 0.00 | 0.00 | 0.00 | 86 | 1007.0 |
| 20260506071030 | 78 | 192 | 2.0 | 7.0 | 0.00 | 0.00 | 0.00 | 86 | 1007.1 |
| 20260506070529 | 78 | 190 | 3.0 | 10.0 | 0.00 | 0.00 | 0.00 | 85 | 1007.2 |
| 20260506062024 | 78 | 171 | 3.0 | 9.0 | 0.00 | 0.00 | 0.00 | 85 | 1007.7 |
| 20260506061531 | 78 | 208 | 2.0 | 9.0 | 0.00 | 0.00 | 0.00 | 86 | 1007.6 |
| 20260506061026 | 78 | 223 | 4.0 | 9.0 | 0.00 | 0.00 | 0.00 | 86 | 1007.6 |
| 20260506060522 | 78 | 167 | 2.0 | 8.0 | 0.00 | 0.00 | 0.00 | 87 | 1007.6 |
| 20260506051017 | 78 | 184 | 2.0 | 8.0 | 0.00 | 0.00 | 0.00 | 86 | 1007.9 |
| 20260506050518 | 78 | 207 | 3.0 | 11.0 | 0.00 | 0.00 | 0.00 | 86 | 1007.9 |
| 20260506045015 | 78 | 177 | 3.0 | 12.0 | 0.00 | 0.00 | 0.00 | 86 | 1007.7 |
| 20260506044515 | 78 | 170 | 5.0 | 15.0 | 0.00 | 0.00 | 0.00 | 86 | 1007.9 |
| 20260506044018 | 78 | 216 | 4.0 | 15.0 | 0.00 | 0.00 | 0.00 | 86 | 1007.9 |
| 20260506043514 | 78 | 194 | 3.0 | 16.0 | 0.00 | 0.00 | 0.00 | 86 | 1007.7 |
| 20260506043014 | 78 | 199 | 5.0 | 16.0 | 0.00 | 0.00 | 0.00 | 86 | 1007.7 |
| 20260506042516 | 78 | 254 | 4.0 | 11.0 | 0.00 | 0.00 | 0.00 | 86 | 1007.6 |
| 20260506042018 | 78 | 155 | 4.0 | 11.0 | 0.00 | 0.00 | 0.00 | 86 | 1007.8 |
| 20260506041517 | 78 | 166 | 3.0 | 6.0 | 0.00 | 0.00 | 0.00 | 86 | 1007.7 |
| 20260506041013 | 78 | 179 | 2.0 | 8.0 | 0.00 | 0.00 | 0.00 | 87 | 1007.7 |
| 20260506040513 | 78 | 188 | 3.0 | 11.0 | 0.00 | 0.00 | 0.00 | 87 | 1007.6 |
| 20260506040037 | 78 | 155 | 3.0 | 11.0 | 0.00 | 0.00 | 0.00 | 87 | 1007.5 |
| 20260506035513 | 78 | 132 | 5.0 | 11.0 | 0.00 | 0.00 | 0.00 | 87 | 1007.5 |
| 20260506035013 | 78 | 164 | 3.0 | 10.0 | 0.00 | 0.00 | 0.00 | 87 | 1007.5 |
| 20260506034513 | 78 | 211 | 3.0 | 12.0 | 0.00 | 0.00 | 0.00 | 87 | 1007.4 |
| 20260506034013 | 78 | 182 | 4.0 | 12.0 | 0.00 | 0.00 | 0.00 | 87 | 1007.3 |
| 20260506033512 | 78 | 134 | 5.0 | 11.0 | 0.00 | 0.00 | 0.00 | 87 | 1007.2 |
| 20260506033012 | 78 | 191 | 4.0 | 17.0 | 0.00 | 0.00 | 0.00 | 87 | 1007.2 |
| 20260506032512 | 78 | 145 | 4.0 | 17.0 | 0.00 | 0.00 | 0.00 | 87 | 1007.0 |
| 20260506032012 | 78 | 190 | 4.0 | 15.0 | 0.00 | 0.00 | 0.00 | 87 | 1007.0 |
| 20260506031526 | 78 | 202 | 6.0 | 12.0 | 0.00 | 0.00 | 0.00 | 87 | 1006.9 |
| 20260506031015 | 78 | 214 | 4.0 | 16.0 | 0.00 | 0.00 | 0.00 | 87 | 1007.0 |
| 20260506030511 | 78 | 178 | 3.0 | 16.0 | 0.00 | 0.00 | 0.00 | 87 | 1006.9 |
| 20260506030011 | 78 | 236 | 4.0 | 11.0 | 0.00 | 0.00 | 0.00 | 87 | 1006.8 |
| 20260506025511 | 78 | 108 | 5.0 | 14.0 | 0.00 | 0.00 | 0.00 | 87 | 1006.8 |
| 20260506025013 | 78 | 173 | 4.0 | 14.0 | 0.00 | 0.00 | 0.00 | 87 | 1006.8 |
| 20260506024517 | 78 | 186 | 4.0 | 11.0 | 0.00 | 0.00 | 0.00 | 87 | 1006.7 |
| 20260506024010 | 78 | 166 | 5.0 | 13.0 | 0.00 | 0.00 | 0.00 | 87 | 1006.7 |
| 20260506023510 | 78 | 184 | 6.0 | 13.0 | 0.00 | 0.00 | 0.00 | 87 | 1006.8 |
| 20260506023011 | 78 | 169 | 1.0 | 11.0 | 0.00 | 0.00 | 0.00 | 87 | 1006.7 |
| 20260506022509 | 78 | 179 | 5.0 | 10.0 | 0.00 | 0.00 | 0.00 | 86 | 1006.8 |
| 20260506022009 | 78 | 134 | 4.0 | 10.0 | 0.00 | 0.00 | 0.00 | 86 | 1006.7 |
| 20260506021511 | 78 | 173 | 4.0 | 11.0 | 0.00 | 0.00 | 0.00 | 86 | 1006.5 |
| 20260506021009 | 78 | 196 | 3.0 | 12.0 | 0.00 | 0.00 | 0.00 | 86 | 1006.5 |
| 20260506020512 | 78 | 94 | 5.0 | 15.0 | 0.00 | 0.00 | 0.00 | 86 | 1006.4 |
| 20260506020009 | 78 | 191 | 4.0 | 11.0 | 0.00 | 0.00 | 0.00 | 86 | 1006.4 |
| 20260506015510 | 78 | 183 | 5.0 | 11.0 | 0.00 | 0.00 | 0.00 | 85 | 1006.2 |
| 20260506015008 | 78 | 215 | 3.0 | 10.0 | 0.00 | 0.00 | 0.00 | 85 | 1006.3 |
| 20260506014512 | 78 | 194 | 5.0 | 12.0 | 0.00 | 0.00 | 0.00 | 85 | 1006.3 |
| 20260506014007 | 78 | 138 | 4.0 | 12.0 | 0.00 | 0.00 | 0.00 | 85 | 1006.2 |
| 20260506013512 | 78 | 208 | 4.0 | 17.0 | 0.00 | 0.00 | 0.00 | 85 | 1006.0 |
| 20260506013007 | 78 | 137 | 2.0 | 17.0 | 0.00 | 0.00 | 0.00 | 85 | 1006.0 |
| 20260506012508 | 78 | 196 | 2.0 | 15.0 | 0.00 | 0.00 | 0.00 | 85 | 1005.9 |
| 20260506012009 | 79 | 181 | 4.0 | 15.0 | 0.00 | 0.00 | 0.00 | 85 | 1005.7 |
| 20260506011507 | 79 | 176 | 4.0 | 9.0 | 0.00 | 0.00 | 0.00 | 84 | 1005.7 |
| 20260506011007 | 79 | 179 | 2.0 | 11.0 | 0.00 | 0.00 | 0.00 | 84 | 1005.8 |
| 20260506010507 | 79 | 184 | 5.0 | 11.0 | 0.00 | 0.00 | 0.00 | 84 | 1005.6 |
| 20260506010012 | 79 | 167 | 5.0 | 11.0 | 0.00 | 0.00 | 0.00 | 84 | 1005.7 |
| 20260506005507 | 79 | 159 | 5.0 | 11.0 | 0.00 | 0.00 | 0.00 | 83 | 1005.7 |
| 20260506005009 | 79 | 127 | 6.0 | 11.0 | 0.00 | 0.00 | 0.00 | 83 | 1005.7 |
| 20260506004511 | 79 | 223 | 4.0 | 12.0 | 0.00 | 0.00 | 0.00 | 83 | 1005.6 |
| 20260506004009 | 80 | 214 | 5.0 | 16.0 | 0.00 | 0.00 | 0.00 | 83 | 1005.7 |
| 20260506003507 | 80 | 222 | 5.0 | 16.0 | 0.00 | 0.00 | 0.00 | 82 | 1005.5 |
| 20260506003009 | 80 | 198 | 3.0 | 10.0 | 0.00 | 0.00 | 0.00 | 82 | 1005.5 |
| 20260506002505 | 80 | 201 | 3.0 | 13.0 | 0.00 | 0.00 | 0.00 | 82 | 1005.6 |
| 20260506002005 | 80 | 220 | 6.0 | 14.0 | 0.00 | 0.00 | 0.00 | 81 | 1005.5 |
| 20260506001505 | 80 | 211 | 7.0 | 15.0 | 0.00 | 0.00 | 0.00 | 81 | 1005.3 |
| 20260506001008 | 81 | 153 | 6.0 | 14.0 | 0.00 | 0.00 | 0.00 | 81 | 1005.4 |
| 20260506000505 | 81 | 126 | 5.0 | 14.0 | 0.00 | 0.00 | 0.00 | 80 | 1005.5 |
| 20260506000005 | 81 | 141 | 4.0 | 15.0 | 0.00 | 0.00 | 0.00 | 80 | 1005.4 |
| 20260505235504 | 81 | 171 | 6.0 | 16.0 | 0.00 | 0.00 | 0.00 | 79 | 1005.4 |
| 20260505235004 | 81 | 200 | 6.0 | 16.0 | 0.00 | 0.00 | 0.00 | 79 | 1005.3 |
| 20260505234504 | 82 | 169 | 3.0 | 13.0 | 0.00 | 0.00 | 0.00 | 78 | 1005.3 |
| 20260505234004 | 82 | 182 | 6.0 | 14.0 | 0.00 | 0.00 | 0.00 | 78 | 1005.5 |
| 20260505233504 | 82 | 141 | 7.0 | 16.0 | 0.00 | 0.00 | 0.00 | 78 | 1005.4 |
| 20260505233003 | 82 | 188 | 6.0 | 16.0 | 0.00 | 0.00 | 0.00 | 77 | 1005.2 |
| 20260505232507 | 82 | 198 | 6.0 | 13.0 | 0.00 | 0.00 | 0.00 | 77 | 1005.1 |
| 20260505232003 | 82 | 184 | 6.0 | 16.0 | 0.00 | 0.00 | 0.00 | 77 | 1005.1 |
| 20260505231503 | 83 | 134 | 6.0 | 16.0 | 0.00 | 0.00 | 0.00 | 76 | 1005.4 |
| 20260505231002 | 82 | 207 | 7.0 | 15.0 | 0.00 | 0.00 | 0.00 | 76 | 1005.3 |
| 20260505230502 | 83 | 174 | 6.0 | 15.0 | 0.00 | 0.00 | 0.00 | 76 | 1005.2 |
| 20260505230003 | 83 | 168 | 7.0 | 17.0 | 0.00 | 0.00 | 0.00 | 76 | 1005.2 |
| 20260505225505 | 83 | 173 | 8.0 | 17.0 | 0.00 | 0.00 | 0.00 | 75 | 1005.2 |
| 20260505225102 | 84 | 170 | 6.0 | 17.0 | 0.00 | 0.00 | 0.00 | 75 | 1005.2 |
| 20260505224501 | 84 | 164 | 5.0 | 20.0 | 0.00 | 0.00 | 0.00 | 75 | 1005.3 |
| 20260505224001 | 84 | 178 | 9.0 | 20.0 | 0.00 | 0.00 | 0.00 | 74 | 1005.2 |
| 20260505223503 | 84 | 200 | 6.0 | 17.0 | 0.00 | 0.00 | 0.00 | 73 | 1005.2 |
| 20260505223002 | 84 | 173 | 6.0 | 17.0 | 0.00 | 0.00 | 0.00 | 73 | 1005.2 |
| 20260505222600 | 85 | 182 | 7.0 | 18.0 | 0.00 | 0.00 | 0.00 | 72 | 1005.4 |
| 20260505222100 | 85 | 165 | 7.0 | 18.0 | 0.00 | 0.00 | 0.00 | 71 | 1005.3 |
| 20260505221600 | 85 | 173 | 5.0 | 12.0 | 0.00 | 0.00 | 0.00 | 71 | 1005.2 |
| 20260505221059 | 86 | 182 | 6.0 | 15.0 | 0.00 | 0.00 | 0.00 | 70 | 1005.3 |
| 20260505220559 | 86 | 196 | 5.0 | 18.0 | 0.00 | 0.00 | 0.00 | 71 | 1005.4 |
| 20260505220058 | 85 | 170 | 5.0 | 18.0 | 0.00 | 0.00 | 0.00 | 71 | 1005.5 |
| 20260505215558 | 85 | 126 | 6.0 | 15.0 | 0.00 | 0.00 | 0.00 | 71 | 1005.5 |
| 20260505215058 | 85 | 130 | 5.0 | 20.0 | 0.00 | 0.00 | 0.00 | 71 | 1005.4 |
| 20260505214600 | 85 | 198 | 5.0 | 20.0 | 0.00 | 0.00 | 0.00 | 71 | 1005.4 |
| 20260505214057 | 85 | 209 | 5.0 | 18.0 | 0.00 | 0.00 | 0.00 | 71 | 1005.6 |
| 20260505213556 | 85 | 144 | 5.0 | 18.0 | 0.00 | 0.00 | 0.00 | 71 | 1005.7 |
| 20260505213056 | 86 | 202 | 6.0 | 14.0 | 0.00 | 0.00 | 0.00 | 69 | 1005.8 |
| 20260505212556 | 86 | 180 | 6.0 | 20.0 | 0.00 | 0.00 | 0.00 | 69 | 1005.8 |
| 20260505212056 | 86 | 199 | 9.0 | 20.0 | 0.00 | 0.00 | 0.00 | 69 | 1005.9 |
| 20260505211609 | 86 | 192 | 5.0 | 13.0 | 0.00 | 0.00 | 0.00 | 70 | 1006.0 |
| 20260505211056 | 86 | 167 | 6.0 | 18.0 | 0.00 | 0.00 | 0.00 | 70 | 1005.9 |
| 20260505210555 | 86 | 171 | 7.0 | 18.0 | 0.00 | 0.00 | 0.00 | 70 | 1005.9 |
| 20260505210057 | 86 | 140 | 4.0 | 18.0 | 0.00 | 0.00 | 0.00 | 71 | 1005.9 |
| 20260505205554 | 85 | 173 | 8.0 | 18.0 | 0.00 | 0.00 | 0.00 | 71 | 1006.0 |
| 20260505205055 | 85 | 148 | 7.0 | 16.0 | 0.00 | 0.00 | 0.00 | 71 | 1006.2 |
| 20260505204553 | 85 | 163 | 5.0 | 16.0 | 0.00 | 0.00 | 0.00 | 70 | 1006.3 |
| 20260505204051 | 86 | 215 | 7.0 | 13.0 | 0.00 | 0.00 | 0.00 | 70 | 1006.4 |
| 20260505203650 | 86 | 219 | 5.0 | 13.0 | 0.00 | 0.00 | 0.00 | 71 | 1006.4 |
| 20260505203052 | 86 | 160 | 5.0 | 13.0 | 0.00 | 0.00 | 0.00 | 70 | 1006.5 |
| 20260505202549 | 86 | 233 | 6.0 | 12.0 | 0.00 | 0.00 | 0.00 | 71 | 1006.7 |
| 20260505202052 | 86 | 155 | 6.0 | 11.0 | 0.00 | 0.00 | 0.00 | 70 | 1006.8 |
| 20260505201556 | 86 | 186 | 5.0 | 14.0 | 0.00 | 0.00 | 0.00 | 70 | 1006.8 |
| 20260505201048 | 85 | 204 | 4.0 | 18.0 | 0.00 | 0.00 | 0.00 | 71 | 1006.8 |
| 20260505200548 | 85 | 217 | 4.0 | 18.0 | 0.00 | 0.00 | 0.00 | 71 | 1006.9 |
| 20260505200050 | 86 | 150 | 4.0 | 11.0 | 0.00 | 0.00 | 0.00 | 70 | 1007.1 |
| 20260505195547 | 86 | 224 | 4.0 | 12.0 | 0.00 | 0.00 | 0.00 | 70 | 1007.1 |
| 20260505195047 | 86 | 179 | 4.0 | 13.0 | 0.00 | 0.00 | 0.00 | 71 | 1007.0 |
| 20260505194605 | 85 | 198 | 5.0 | 18.0 | 0.00 | 0.00 | 0.00 | 71 | 1006.9 |
| 20260505194046 | 86 | 186 | 6.0 | 17.0 | 0.00 | 0.00 | 0.00 | 71 | 1007.0 |
| 20260505193547 | 86 | 183 | 4.0 | 16.0 | 0.00 | 0.00 | 0.00 | 72 | 1007.0 |
| 20260505193045 | 85 | 151 | 6.0 | 16.0 | 0.00 | 0.00 | 0.00 | 72 | 1007.1 |
| 20260505192544 | 85 | 210 | 5.0 | 14.0 | 0.00 | 0.00 | 0.00 | 71 | 1007.1 |
| 20260505192044 | 85 | 176 | 6.0 | 17.0 | 0.00 | 0.00 | 0.00 | 71 | 1007.1 |
| 20260505191545 | 86 | 176 | 5.0 | 17.0 | 0.00 | 0.00 | 0.00 | 70 | 1007.0 |
| 20260505191045 | 86 | 205 | 4.0 | 14.0 | 0.00 | 0.00 | 0.00 | 70 | 1007.1 |
| 20260505190543 | 86 | 182 | 7.0 | 14.0 | 0.00 | 0.00 | 0.00 | 69 | 1007.2 |
| 20260505190045 | 86 | 210 | 5.0 | 14.0 | 0.00 | 0.00 | 0.00 | 70 | 1007.3 |
| 20260505185543 | 86 | 222 | 5.0 | 12.0 | 0.00 | 0.00 | 0.00 | 70 | 1007.2 |
| 20260505185042 | 86 | 185 | 6.0 | 12.0 | 0.00 | 0.00 | 0.00 | 70 | 1007.3 |
| 20260505184541 | 86 | 129 | 5.0 | 11.0 | 0.00 | 0.00 | 0.00 | 70 | 1007.4 |
| 20260505184045 | 85 | 165 | 4.0 | 17.0 | 0.00 | 0.00 | 0.00 | 72 | 1007.3 |
| 20260505183540 | 85 | 217 | 5.0 | 17.0 | 0.00 | 0.00 | 0.00 | 72 | 1007.5 |
| 20260505183040 | 84 | 197 | 3.0 | 11.0 | 0.00 | 0.00 | 0.00 | 74 | 1007.5 |
| 20260505182537 | 84 | 184 | 4.0 | 18.0 | 0.00 | 0.00 | 0.00 | 73 | 1007.4 |
| 20260505182040 | 84 | 184 | 5.0 | 18.0 | 0.00 | 0.00 | 0.00 | 73 | 1007.4 |
| 20260505181540 | 85 | 165 | 5.0 | 14.0 | 0.00 | 0.00 | 0.00 | 72 | 1007.5 |
| 20260505181035 | 84 | 111 | 4.0 | 11.0 | 0.00 | 0.00 | 0.00 | 74 | 1007.5 |
| 20260505180538 | 84 | 175 | 5.0 | 10.0 | 0.00 | 0.00 | 0.00 | 74 | 1007.6 |
| 20260505180039 | 84 | 213 | 5.0 | 15.0 | 0.00 | 0.00 | 0.00 | 74 | 1007.6 |